Flag for China Weather past 2 weeks in Xiamen, Fujian, China

Now
84 °F

Broken clouds.


Feels Like: 101 °F
Forecast: 78 / 90 °F
Wind: 6 mph from East

Location: Xiamen Airport

Current Time: Jul 4, 2015 at 7:48:31 AM

Latest Report: Jul 4, 2015 at 7:00 AM


Visibility: 5 mi

Pressure: 29.62 "Hg

Humidity: 94%

Dew point: 82 °F

Location of XiamenLocation

Historic Weather in Xiamen — Graph

°F

Xiamen temperature yesterday

Maximum temperature yesterday: 91 °F (at 11:00 AM)
Minimum temperature yesterday: 81 °F (at 2:00 AM)
Average temperature yesterday: 85 °F

Past Weeks' High & Low Weather Summary

 TemperatureHumidityPressure
High97 °F (Jun 28, 1:00 PM)100% (Jun 21, 12:00 AM)29.83 "Hg (Jun 21, 12:00 AM)
Low77 °F (Jul 2, 5:00 PM)50% (Jun 29, 2:00 PM)29.53 "Hg (Jul 1, 3:00 PM)
Average86 °F83%29.70 "Hg
* Reported Jun 19 7:00 AM — Jul 4 7:00 AM, Xiamen, Weather by CustomWeather, © 2015

Note: Actual official high and low records may vary slightly from our data, if they occured in-between our weather recording intervals... More about our weather records

Advertising

Xiamen weather history for previous 24 hours

 ConditionsComfort  
Time TempWeatherWind HumidityBarometerVisibility
7:00 AM
Sat, Jul 4
84 °FBroken clouds.6 mph94%29.62 "Hg5 mi
6:00 AM82 °FScattered clouds.3 mph100%29.62 "Hg4 mi
5:00 AM82 °FPartly cloudy.1 mph94%29.59 "Hg4 mi
4:00 AM82 °FPassing clouds.1 mph94%29.59 "HgN/A
3:00 AM82 °FPassing clouds.3 mph94%29.59 "HgN/A
2:00 AM84 °FPassing clouds.6 mph89%29.59 "HgN/A
1:00 AM84 °FPassing clouds.3 mph89%29.62 "HgN/A
12:00 AM84 °FPassing clouds.3 mph89%29.62 "HgN/A
11:00 PM
Fri, Jul 3
82 °FPassing clouds.No wind94%29.62 "HgN/A
10:00 PM84 °FClear.1 mph89%29.62 "Hg10 mi
9:00 PM82 °FPassing clouds.No wind89%29.62 "HgN/A
8:00 PM84 °FPassing clouds.1 mph84%29.62 "HgN/A
7:00 PM82 °FPassing clouds.8 mph84%29.59 "HgN/A
6:00 PM86 °FScattered clouds.3 mph84%29.59 "HgN/A
5:00 PM86 °FScattered clouds.8 mph89%29.56 "HgN/A
4:00 PM90 °FScattered clouds.8 mph79%29.59 "HgN/A
3:00 PM86 °FScattered clouds.3 mph89%29.59 "HgN/A
2:00 PM90 °FScattered clouds.8 mph75%29.59 "HgN/A
1:00 PM91 °FScattered clouds.8 mph71%29.62 "HgN/A
12:00 PM91 °FScattered clouds.3 mph71%29.62 "HgN/A
11:00 AM91 °FScattered clouds.6 mph71%29.62 "Hg5 mi
10:00 AM90 °FScattered clouds.6 mph71%29.62 "Hg5 mi
9:00 AM88 °FPartly sunny.1 mph79%29.62 "Hg4 mi
8:00 AM84 °FScattered clouds.1 mph89%29.62 "Hg4 mi
7:00 AM84 °FScattered clouds.3 mph89%29.62 "Hg4 mi
Weather by CustomWeather, © 2015

See weather overviewHow to use our weather pages